datetime,flow
1958-10-01,201.0
1958-10-02,209.0
1958-10-03,217.0
1958-10-04,201.0
1958-10-05,268.0
1958-10-06,287.0
1958-10-07,282.0
1958-10-08,225.0
1958-10-09,225.0
1958-10-10,209.0
1958-10-11,179.0
1958-10-12,197.0
1958-10-13,108.0
1958-10-14,193.0
1958-10-15,87.0
1958-10-16,100.0
1958-10-17,95.0
1958-10-18,81.0
1958-10-19,132.0
1958-10-20,18.0
1958-10-21,14.0
1958-10-22,14.0
1958-10-23,16.0
1958-10-24,16.0
1958-10-25,13.0
1958-10-26,13.0
1958-10-27,18.0
1958-10-28,361.0
1958-10-29,195.0
1958-10-30,316.0
1958-10-31,195.0
1958-11-01,336.0
1958-11-02,310.0
1958-11-03,296.0
1958-11-04,323.0
1958-11-05,623.0
1958-11-06,1300.0
1958-11-07,1400.0
1958-11-08,1420.0
1958-11-09,1470.0
1958-11-10,1590.0
1958-11-11,1680.0
1958-11-12,1650.0
1958-11-13,1540.0
1958-11-14,1570.0
1958-11-15,1650.0
1958-11-16,1680.0
1958-11-17,1620.0
1958-11-18,1760.0
1958-11-19,1780.0
1958-11-20,1620.0
1958-11-21,1620.0
1958-11-22,1620.0
1958-11-23,1650.0
1958-11-24,1650.0
1958-11-25,1620.0
1958-11-26,1620.0
1958-11-27,1700.0
1958-11-28,1760.0
1958-11-29,1700.0
1958-11-30,1780.0
1958-12-01,1680.0
1958-12-02,1760.0
1958-12-03,1570.0
1958-12-04,1590.0
1958-12-05,1590.0
1958-12-06,1540.0
1958-12-07,1590.0
1958-12-08,1680.0
1958-12-09,1540.0
1958-12-10,1540.0
1958-12-11,1420.0
1958-12-12,1520.0
1958-12-13,1540.0
1958-12-14,1650.0
1958-12-15,1570.0
1958-12-16,1540.0
1958-12-17,1470.0
1958-12-18,1490.0
1958-12-19,1350.0
1958-12-20,1200.0
1958-12-21,1240.0
1958-12-22,1240.0
1958-12-23,1110.0
1958-12-24,979.0
1958-12-25,874.0
1958-12-26,843.0
1958-12-27,874.0
1958-12-28,905.0
1958-12-29,874.0
1958-12-30,843.0
1958-12-31,750.0
1959-01-01,711.0
1959-01-02,685.0
1959-01-03,566.0
1959-01-04,503.0
1959-01-05,685.0
1959-01-06,544.0
1959-01-07,503.0
1959-01-08,512.0
1959-01-09,566.0
1959-01-10,633.0
1959-01-11,750.0
1959-01-12,737.0
1959-01-13,750.0
1959-01-14,766.0
1959-01-15,796.0
1959-01-16,812.0
1959-01-17,724.0
1959-01-18,685.0
1959-01-19,685.0
1959-01-20,588.0
1959-01-21,598.0
1959-01-22,620.0
1959-01-23,711.0
1959-01-24,750.0
1959-01-25,672.0
1959-01-26,609.0
1959-01-27,620.0
1959-01-28,633.0
1959-01-29,588.0
1959-01-30,620.0
1959-01-31,659.0
1959-02-01,620.0
1959-02-02,633.0
1959-02-03,659.0
1959-02-04,672.0
1959-02-05,633.0
1959-02-06,609.0
1959-02-07,724.0
1959-02-08,646.0
1959-02-09,620.0
1959-02-10,620.0
1959-02-11,646.0
1959-02-12,711.0
1959-02-13,646.0
1959-02-14,620.0
1959-02-15,620.0
1959-02-16,620.0
1959-02-17,659.0
1959-02-18,659.0
1959-02-19,577.0
1959-02-20,598.0
1959-02-21,598.0
1959-02-22,646.0
1959-02-23,711.0
1959-02-24,698.0
1959-02-25,766.0
1959-02-26,781.0
1959-02-27,766.0
1959-02-28,711.0
1959-03-01,685.0
1959-03-02,672.0
1959-03-03,577.0
1959-03-04,485.0
1959-03-05,421.0
1959-03-06,413.0
1959-03-07,577.0
1959-03-08,598.0
1959-03-09,598.0
1959-03-10,359.0
1959-03-11,398.0
1959-03-12,343.0
1959-03-13,343.0
1959-03-14,310.0
1959-03-15,270.0
1959-03-16,351.0
1959-03-17,310.0
1959-03-18,205.0
1959-03-19,163.0
1959-03-20,171.0
1959-03-21,225.0
1959-03-22,289.0
1959-03-23,176.0
1959-03-24,181.0
1959-03-25,155.0
1959-03-26,144.0
1959-03-27,122.0
1959-03-28,136.0
1959-03-29,219.0
1959-03-30,185.0
1959-03-31,136.0
1959-04-01,132.0
1959-04-02,95.0
1959-04-03,72.0
1959-04-04,50.0
1959-04-05,39.0
1959-04-06,36.0
1959-04-07,22.0
1959-04-08,11.0
1959-04-09,11.0
1959-04-10,23.0
1959-04-11,39.0
1959-04-12,21.0
1959-04-13,77.0
1959-04-14,122.0
1959-04-15,126.0
1959-04-16,97.0
1959-04-17,87.0
1959-04-18,103.0
1959-04-19,145.0
1959-04-20,43.0
1959-04-21,79.0
1959-04-22,136.0
1959-04-23,92.0
1959-04-24,57.0
1959-04-25,103.0
1959-04-26,178.0
1959-04-27,19.0
1959-04-28,18.0
1959-04-29,15.0
1959-04-30,8.0
1959-05-01,9.0
1959-05-02,20.0
1959-05-03,16.0
1959-05-04,22.0
1959-05-05,106.0
1959-05-06,167.0
1959-05-07,185.0
1959-05-08,167.0
1959-05-09,103.0
1959-05-10,95.0
1959-05-11,152.0
1959-05-12,323.0
1959-05-13,140.0
1959-05-14,119.0
1959-05-15,209.0
1959-05-16,189.0
1959-05-17,284.0
1959-05-18,78.0
1959-05-19,90.0
1959-05-20,68.0
1959-05-21,74.0
1959-05-22,43.0
1959-05-23,39.0
1959-05-24,973.0
1959-05-25,702.0
1959-05-26,55.0
1959-05-27,55.0
1959-05-28,57.0
1959-05-29,61.0
1959-05-30,68.0
1959-05-31,50.0
1959-06-01,64.0
1959-06-02,57.0
1959-06-03,48.0
1959-06-04,25.0
1959-06-05,9.0
1959-06-06,11.0
1959-06-07,9.0
1959-06-08,8.0
1959-06-09,9.0
1959-06-10,8.0
1959-06-11,7.0
1959-06-12,6.0
1959-06-13,7.0
1959-06-14,7.0
1959-06-15,8.0
1959-06-16,7.0
1959-06-17,8.0
1959-06-18,7.0
1959-06-19,4.0
1959-06-20,0.0
1959-06-21,0.0
1959-06-22,0.0
1959-06-23,0.0
1959-06-24,0.0
1959-06-25,0.0
1959-06-26,0.0
1959-06-27,0.0
1959-06-28,0.0
1959-06-29,0.0
1959-06-30,0.0
1959-07-01,0.0
1959-07-02,0.0
1959-07-03,0.0
1959-07-04,2.0
1959-07-05,4.0
1959-07-06,0.0
1959-07-07,0.0
1959-07-08,0.0
1959-07-09,0.0
1959-07-10,0.0
1959-07-11,0.0
1959-07-12,1.0
1959-07-13,1.0
1959-07-14,0.0
1959-07-15,0.0
1959-07-16,0.0
1959-07-17,0.0
1959-07-18,0.0
1959-07-19,0.0
1959-07-20,0.0
1959-07-21,0.0
1959-07-22,0.0
1959-07-23,0.0
1959-07-24,0.0
1959-07-25,0.0
1959-07-26,0.0
1959-07-27,105.0
1959-07-28,76.0
1959-07-29,0.0
1959-07-30,0.0
1959-07-31,0.0
1959-08-01,0.0
1959-08-02,0.0
1959-08-03,0.0
1959-08-04,0.0
1959-08-05,0.0
1959-08-06,17.0
1959-08-07,556.0
1959-08-08,558.0
1959-08-09,158.0
1959-08-10,99.0
1959-08-11,30.0
1959-08-12,140.0
1959-08-13,56.0
1959-08-14,37.0
1959-08-15,45.0
1959-08-16,390.0
1959-08-17,74.0
1959-08-18,104.0
1959-08-19,230.0
1959-08-20,37.0
1959-08-21,64.0
1959-08-22,132.0
1959-08-23,87.0
1959-08-24,45.0
1959-08-25,77.0
1959-08-26,938.0
1959-08-27,310.0
1959-08-28,566.0
1959-08-29,75.0
1959-08-30,45.0
1959-08-31,40.0
1959-09-01,10.0
1959-09-02,8.0
1959-09-03,6.0
1959-09-04,4.0
1959-09-05,3.0
1959-09-06,3.0
1959-09-07,2.0
1959-09-08,3.0
1959-09-09,2.0
1959-09-10,2.0
1959-09-11,1.0
1959-09-12,0.0
1959-09-13,0.0
1959-09-14,0.0
1959-09-15,0.0
1959-09-16,0.0
1959-09-17,0.0
1959-09-18,0.0
1959-09-19,0.0
1959-09-20,0.0
1959-09-21,0.0
1959-09-22,0.0
1959-09-23,0.0
1959-09-24,0.0
1959-09-25,0.0
1959-09-26,0.0
1959-09-27,0.0
1959-09-28,0.0
1959-09-29,0.0
1959-09-30,0.0
1959-10-01,0.0
1959-10-02,0.0
1959-10-03,0.1
1959-10-04,0.9
1959-10-05,2.5
1959-10-06,3.2
1959-10-07,6.8
1959-10-08,3.2
1959-10-09,4.0
1959-10-10,6.4
1959-10-11,4.4
1959-10-12,4.4
1959-10-13,3.8
1959-10-14,2.8
1959-10-15,4.0
1959-10-16,4.4
1959-10-17,4.0
1959-10-18,4.0
1959-10-19,6.4
1959-10-20,7.2
1959-10-21,7.2
1959-10-22,6.4
1959-10-23,5.6
1959-10-24,6.0
1959-10-25,4.8
1959-10-26,4.0
1959-10-27,4.0
1959-10-28,5.2
1959-10-29,25.0
1959-10-30,37.0
1959-10-31,3.8
1959-11-01,117.0
1959-11-02,0.2
1959-11-03,0.0
1959-11-04,0.0
1959-11-05,0.0
1959-11-06,0.0
1959-11-07,0.0
1959-11-08,0.0
1959-11-09,0.0
1959-11-10,0.0
1959-11-11,0.0
1959-11-12,0.0
1959-11-13,0.0
1959-11-14,0.0
1959-11-15,0.0
1959-11-16,0.0
1959-11-17,0.0
1959-11-18,40.0
1959-11-19,1320.0
1959-11-20,669.0
1959-11-21,24.0
1959-11-22,12.0
1959-11-23,4.8
1959-11-24,3.5
1959-11-25,2.8
1959-11-26,1.8
1959-11-27,2.5
1959-11-28,2.2
1959-11-29,1.5
1959-11-30,0.8
1959-12-01,0.0
1959-12-02,0.0
1959-12-03,0.0
1959-12-04,0.0
1959-12-05,0.0
1959-12-06,0.0
1959-12-07,0.0
1959-12-08,0.0
1959-12-09,0.0
1959-12-10,0.0
1959-12-11,0.0
1959-12-12,0.0
1959-12-13,0.0
1959-12-14,0.0
1959-12-15,0.0
1959-12-16,0.0
1959-12-17,0.0
1959-12-18,0.0
1959-12-19,0.8
1959-12-20,0.9
1959-12-21,1.0
1959-12-22,1.2
1959-12-23,1.0
1959-12-24,0.8
1959-12-25,1.2
1959-12-26,0.8
1959-12-27,0.9
1959-12-28,0.6000000000000001
1959-12-29,0.6000000000000001
1959-12-30,0.6000000000000001
1959-12-31,0.6000000000000001
1960-01-01,0.8
1960-01-02,1.5
1960-01-03,1.4
1960-01-04,1.2
1960-01-05,0.9
1960-01-06,1.4
1960-01-07,1.8
1960-01-08,2.2
1960-01-09,2.2
1960-01-10,2.2
1960-01-11,3.5
1960-01-12,3.8
1960-01-13,3.5
1960-01-14,371.0
1960-01-15,182.0
1960-01-16,23.0
1960-01-17,15.0
1960-01-18,5.6
1960-01-19,3.0
1960-01-20,2.8
1960-01-21,2.5
1960-01-22,2.5
1960-01-23,2.0
1960-01-24,2.0
1960-01-25,2.8
1960-01-26,2.8
1960-01-27,2.8
1960-01-28,2.5
1960-01-29,2.5
1960-01-30,2.5
1960-01-31,2.5
1960-02-01,2.5
1960-02-02,2.2
1960-02-03,2.8
1960-02-04,0.2
1960-02-05,164.0
1960-02-06,724.0
1960-02-07,698.0
1960-02-08,672.0
1960-02-09,659.0
1960-02-10,433.0
1960-02-11,17.0
1960-02-12,14.0
1960-02-13,11.0
1960-02-14,11.0
1960-02-15,13.0
1960-02-16,13.0
1960-02-17,12.0
1960-02-18,11.0
1960-02-19,8.6
1960-02-20,6.4
1960-02-21,5.2
1960-02-22,4.4
1960-02-23,4.0
1960-02-24,4.0
1960-02-25,7.2
1960-02-26,6.0
1960-02-27,4.4
1960-02-28,3.2
1960-02-29,5.2
1960-03-01,6.8
1960-03-02,5.6
1960-03-03,13.0
1960-03-04,14.0
1960-03-05,14.0
1960-03-06,20.0
1960-03-07,33.0
1960-03-08,18.0
1960-03-09,553.0
1960-03-10,1140.0
1960-03-11,1710.0
1960-03-12,1750.0
1960-03-13,905.0
1960-03-14,544.0
1960-03-15,577.0
1960-03-16,781.0
1960-03-17,439.0
1960-03-18,236.0
1960-03-19,171.0
1960-03-20,288.0
1960-03-21,336.0
1960-03-22,374.0
1960-03-23,739.0
1960-03-24,659.0
1960-03-25,1110.0
1960-03-26,633.0
1960-03-27,1050.0
1960-03-28,1400.0
1960-03-29,1420.0
1960-03-30,1530.0
1960-03-31,1650.0
1960-04-01,1810.0
1960-04-02,1870.0
1960-04-03,1350.0
1960-04-04,1240.0
1960-04-05,1110.0
1960-04-06,1040.0
1960-04-07,1490.0
1960-04-08,1930.0
1960-04-09,1930.0
1960-04-10,1930.0
1960-04-11,2730.0
1960-04-12,3020.0
1960-04-13,3230.0
1960-04-14,3760.0
1960-04-15,3550.0
1960-04-16,3150.0
1960-04-17,3400.0
1960-04-18,3250.0
1960-04-19,2620.0
1960-04-20,2520.0
1960-04-21,2520.0
1960-04-22,2440.0
1960-04-23,2680.0
1960-04-24,3100.0
1960-04-25,3250.0
1960-04-26,3000.0
1960-04-27,2900.0
1960-04-28,2640.0
1960-04-29,2250.0
1960-04-30,2040.0
1960-05-01,2160.0
1960-05-02,1680.0
1960-05-03,1460.0
1960-05-04,1060.0
1960-05-05,1270.0
1960-05-06,1730.0
1960-05-07,1560.0
1960-05-08,1370.0
1960-05-09,1510.0
1960-05-10,1320.0
1960-05-11,1140.0
1960-05-12,939.0
1960-05-13,1050.0
1960-05-14,1250.0
1960-05-15,1720.0
1960-05-16,1740.0
1960-05-17,1610.0
1960-05-18,1630.0
1960-05-19,1570.0
1960-05-20,1610.0
1960-05-21,1570.0
1960-05-22,1790.0
1960-05-23,1300.0
1960-05-24,371.0
1960-05-25,401.0
1960-05-26,693.0
1960-05-27,740.0
1960-05-28,740.0
1960-05-29,609.0
1960-05-30,772.0
1960-05-31,812.0
1960-06-01,788.0
1960-06-02,772.0
1960-06-03,852.0
1960-06-04,756.0
1960-06-05,780.0
1960-06-06,1110.0
1960-06-07,1020.0
1960-06-08,1400.0
1960-06-09,1790.0
1960-06-10,2300.0
1960-06-11,4460.0
1960-06-12,3460.0
1960-06-13,2470.0
1960-06-14,2280.0
1960-06-15,2800.0
1960-06-16,2600.0
1960-06-17,2120.0
1960-06-18,1850.0
1960-06-19,2160.0
1960-06-20,1870.0
1960-06-21,1260.0
1960-06-22,1060.0
1960-06-23,1020.0
1960-06-24,1070.0
1960-06-25,878.0
1960-06-26,788.0
1960-06-27,616.0
1960-06-28,336.0
1960-06-29,152.0
1960-06-30,84.0
1960-07-01,51.0
1960-07-02,30.0
1960-07-03,25.0
1960-07-04,20.0
1960-07-05,20.0
1960-07-06,15.0
1960-07-07,10.0
1960-07-08,10.0
1960-07-09,10.0
1960-07-10,20.0
1960-07-11,15.0
1960-07-12,10.0
1960-07-13,10.0
1960-07-14,69.0
1960-07-15,56.0
1960-07-16,41.0
1960-07-17,2.0
1960-07-18,1.0
1960-07-19,0.4
1960-07-20,0.4
1960-07-21,0.4
1960-07-22,0.30000000000000004
1960-07-23,0.1
1960-07-24,0.1
1960-07-25,0.1
1960-07-26,0.0
1960-07-27,0.0
1960-07-28,0.0
1960-07-29,0.0
1960-07-30,0.0
1960-07-31,0.0
1960-08-01,0.0
1960-08-02,0.0
1960-08-03,0.0
1960-08-04,0.0
1960-08-05,0.0
1960-08-06,0.0
1960-08-07,0.0
1960-08-08,0.0
1960-08-09,0.0
1960-08-10,0.0
1960-08-11,60.0
1960-08-12,11.0
1960-08-13,5.3
1960-08-14,0.1
1960-08-15,45.0
1960-08-16,3.0
1960-08-17,0.2
1960-08-18,0.1
1960-08-19,0.1
1960-08-20,0.1
1960-08-21,0.1
1960-08-22,0.1
1960-08-23,0.1
1960-08-24,0.1
1960-08-25,0.1
1960-08-26,0.1
1960-08-27,0.1
1960-08-28,0.1
1960-08-29,0.1
1960-08-30,0.1
1960-08-31,0.1
1960-09-01,0.1
1960-09-02,0.1
1960-09-03,0.1
1960-09-04,0.1
1960-09-05,0.1
1960-09-06,0.1
1960-09-07,0.1
1960-09-08,0.1
1960-09-09,0.1
1960-09-10,669.0
1960-09-11,5.0
1960-09-12,1.0
1960-09-13,0.0
1960-09-14,0.0
1960-09-15,0.0
1960-09-16,0.0
1960-09-17,0.0
1960-09-18,0.0
1960-09-19,57.0
1960-09-20,48.0
1960-09-21,24.0
1960-09-22,21.0
1960-09-23,19.0
1960-09-24,22.0
1960-09-25,20.0
1960-09-26,9.9
1960-09-27,0.30000000000000004
1960-09-28,0.0
1960-09-29,0.0
1960-09-30,0.0
1960-10-01,0.0
1960-10-02,196.0
1960-10-03,1.3
1960-10-04,0.1
1960-10-05,0.0
1960-10-06,0.0
1960-10-07,0.0
1960-10-08,0.0
1960-10-09,0.1
1960-10-10,0.7000000000000001
1960-10-11,0.2
1960-10-12,0.2
1960-10-13,0.2
1960-10-14,0.30000000000000004
1960-10-15,8.5
1960-10-16,122.0
1960-10-17,800.0
1960-10-18,840.0
1960-10-19,750.0
1960-10-20,158.0
1960-10-21,11.0
1960-10-22,8.8
1960-10-23,6.9
1960-10-24,8.8
1960-10-25,8.1
1960-10-26,7.5
1960-10-27,8.1
1960-10-28,6.9
1960-10-29,6.3
1960-10-30,3.8
1960-10-31,3.4
1960-11-01,2.3
1960-11-02,15.0
1960-11-03,20.0
1960-11-04,19.0
1960-11-05,8.1
1960-11-06,8.1
1960-11-07,12.0
1960-11-08,17.0
1960-11-09,24.0
1960-11-10,62.0
1960-11-11,12.0
1960-11-12,6.9
1960-11-13,20.0
1960-11-14,18.0
1960-11-15,5.2
1960-11-16,4.0
1960-11-17,3.0
1960-11-18,2.0
1960-11-19,1.0
1960-11-20,1.0
1960-11-21,1.0
1960-11-22,0.6000000000000001
1960-11-23,0.6000000000000001
1960-11-24,0.6000000000000001
1960-11-25,0.5
1960-11-26,0.5
1960-11-27,0.5
1960-11-28,182.0
1960-11-29,460.0
1960-11-30,475.0
1960-12-01,480.0
1960-12-02,495.0
1960-12-03,490.0
1960-12-04,524.0
1960-12-05,530.0
1960-12-06,560.0
1960-12-07,560.0
1960-12-08,574.0
1960-12-09,560.0
1960-12-10,554.0
1960-12-11,588.0
1960-12-12,567.0
1960-12-13,595.0
1960-12-14,588.0
1960-12-15,609.0
1960-12-16,665.0
1960-12-17,644.0
1960-12-18,630.0
1960-12-19,609.0
1960-12-20,595.0
1960-12-21,609.0
1960-12-22,616.0
1960-12-23,616.0
1960-12-24,609.0
1960-12-25,602.0
1960-12-26,602.0
1960-12-27,602.0
1960-12-28,609.0
1960-12-29,602.0
1960-12-30,602.0
1960-12-31,609.0
1961-01-01,616.0
1961-01-02,595.0
1961-01-03,574.0
1961-01-04,560.0
1961-01-05,548.0
1961-01-06,530.0
1961-01-07,524.0
1961-01-08,518.0
1961-01-09,506.0
1961-01-10,512.0
1961-01-11,536.0
1961-01-12,536.0
1961-01-13,536.0
1961-01-14,548.0
1961-01-15,548.0
1961-01-16,560.0
1961-01-17,560.0
1961-01-18,590.0
1961-01-19,590.0
1961-01-20,590.0
1961-01-21,575.0
1961-01-22,560.0
1961-01-23,560.0
1961-01-24,560.0
1961-01-25,560.0
1961-01-26,575.0
1961-01-27,545.0
1961-01-28,560.0
1961-01-29,590.0
1961-01-30,605.0
1961-01-31,605.0
1961-02-01,620.0
1961-02-02,620.0
1961-02-03,590.0
1961-02-04,575.0
1961-02-05,590.0
1961-02-06,605.0
1961-02-07,605.0
1961-02-08,605.0
1961-02-09,605.0
1961-02-10,605.0
1961-02-11,590.0
1961-02-12,605.0
1961-02-13,605.0
1961-02-14,590.0
1961-02-15,605.0
1961-02-16,605.0
1961-02-17,605.0
1961-02-18,660.0
1961-02-19,700.0
1961-02-20,720.0
1961-02-21,740.0
1961-02-22,720.0
1961-02-23,720.0
1961-02-24,700.0
1961-02-25,700.0
1961-02-26,720.0
1961-02-27,740.0
1961-02-28,720.0
1961-03-01,660.0
1961-03-02,366.0
1961-03-03,141.0
1961-03-04,55.0
1961-03-05,79.0
1961-03-06,82.0
1961-03-07,95.0
1961-03-08,95.0
1961-03-09,95.0
1961-03-10,68.0
1961-03-11,40.0
1961-03-12,40.0
1961-03-13,42.0
1961-03-14,42.0
1961-03-15,42.0
1961-03-16,46.0
1961-03-17,53.0
1961-03-18,100.0
1961-03-19,53.0
1961-03-20,50.0
1961-03-21,40.0
1961-03-22,40.0
1961-03-23,39.0
1961-03-24,39.0
1961-03-25,39.0
1961-03-26,36.0
1961-03-27,37.0
1961-03-28,37.0
1961-03-29,37.0
1961-03-30,54.0
1961-03-31,59.0
1961-04-01,73.0
1961-04-02,36.0
1961-04-03,32.0
1961-04-04,27.0
1961-04-05,30.0
1961-04-06,29.0
1961-04-07,183.0
1961-04-08,76.0
1961-04-09,46.0
1961-04-10,34.0
1961-04-11,30.0
1961-04-12,22.0
1961-04-13,17.0
1961-04-14,12.0
1961-04-15,18.0
1961-04-16,15.0
1961-04-17,14.0
1961-04-18,8.0
1961-04-19,9.5
1961-04-20,27.0
1961-04-21,40.0
1961-04-22,88.0
1961-04-23,554.0
1961-04-24,1510.0
1961-04-25,1500.0
1961-04-26,1270.0
1961-04-27,434.0
1961-04-28,261.0
1961-04-29,59.0
1961-04-30,55.0
1961-05-01,85.0
1961-05-02,2000.0
1961-05-03,1960.0
1961-05-04,2620.0
1961-05-05,2950.0
1961-05-06,3020.0
1961-05-07,3200.0
1961-05-08,3080.0
1961-05-09,2120.0
1961-05-10,1460.0
1961-05-11,1200.0
1961-05-12,1020.0
1961-05-13,1500.0
1961-05-14,2120.0
1961-05-15,2070.0
1961-05-16,1500.0
1961-05-17,1500.0
1961-05-18,1400.0
1961-05-19,1330.0
1961-05-20,1320.0
1961-05-21,1500.0
1961-05-22,1840.0
1961-05-23,1640.0
1961-05-24,1470.0
1961-05-25,1500.0
1961-05-26,1640.0
1961-05-27,1720.0
1961-05-28,2070.0
1961-05-29,1890.0
1961-05-30,1230.0
1961-05-31,1200.0
1961-06-01,1420.0
1961-06-02,1140.0
1961-06-03,1000.0
1961-06-04,1030.0
1961-06-05,935.0
1961-06-06,153.0
1961-06-07,72.0
1961-06-08,45.0
1961-06-09,25.0
1961-06-10,25.0
1961-06-11,26.0
1961-06-12,20.0
1961-06-13,18.0
1961-06-14,15.0
1961-06-15,12.0
1961-06-16,21.0
1961-06-17,20.0
1961-06-18,20.0
1961-06-19,22.0
1961-06-20,23.0
1961-06-21,19.0
1961-06-22,16.0
1961-06-23,14.0
1961-06-24,12.0
1961-06-25,12.0
1961-06-26,12.0
1961-06-27,10.0
1961-06-28,8.8
1961-06-29,5.2
1961-06-30,1.0
1961-07-01,1.0
1961-07-02,1.0
1961-07-03,8.0
1961-07-04,0.7000000000000001
1961-07-05,0.7000000000000001
1961-07-06,0.7000000000000001
1961-07-07,0.8
1961-07-08,0.8
1961-07-09,58.0
1961-07-10,197.0
1961-07-11,30.0
1961-07-12,7.7
1961-07-13,19.0
1961-07-14,8.1
1961-07-15,3.8
1961-07-16,7.5
1961-07-17,5.2
1961-07-18,4.7
1961-07-19,1.3
1961-07-20,0.0
1961-07-21,0.0
1961-07-22,0.0
1961-07-23,0.2
1961-07-24,0.4
1961-07-25,0.5
1961-07-26,0.5
1961-07-27,0.5
1961-07-28,0.5
1961-07-29,0.5
1961-07-30,0.4
1961-07-31,0.5
1961-08-01,0.5
1961-08-02,0.30000000000000004
1961-08-03,0.30000000000000004
1961-08-04,0.30000000000000004
1961-08-05,0.30000000000000004
1961-08-06,0.30000000000000004
1961-08-07,0.2
1961-08-08,0.2
1961-08-09,0.2
1961-08-10,0.2
1961-08-11,0.2
1961-08-12,2.5
1961-08-13,16.0
1961-08-14,400.0
1961-08-15,3.0
1961-08-16,15.0
1961-08-17,25.0
1961-08-18,38.0
1961-08-19,450.0
1961-08-20,820.0
1961-08-21,8.1
1961-08-22,3.0
1961-08-23,480.0
1961-08-24,1200.0
1961-08-25,600.0
1961-08-26,35.0
1961-08-27,25.0
1961-08-28,19.0
1961-08-29,10.0
1961-08-30,6.3
1961-08-31,12.0
1961-09-01,5.7
1961-09-02,12.0
1961-09-03,7.5
1961-09-04,3.8
1961-09-05,2.3
1961-09-06,2.0
1961-09-07,1.0
1961-09-08,3.4
1961-09-09,16.0
1961-09-10,81.0
1961-09-11,970.0
1961-09-12,490.0
1961-09-13,20.0
1961-09-14,48.0
1961-09-15,16.0
1961-09-16,12.0
1961-09-17,6.3
1961-09-18,8.1
1961-09-19,9.4
1961-09-20,256.0
1961-09-21,66.0
1961-09-22,28.0
1961-09-23,21.0
1961-09-24,22.0
1961-09-25,26.0
1961-09-26,20.0
1961-09-27,16.0
1961-09-28,20.0
1961-09-29,19.0
1961-09-30,11.0
1961-10-01,10.0
1961-10-02,9.0
1961-10-03,4.0
1961-10-04,5.0
1961-10-05,5.0
1961-10-06,6.0
1961-10-07,5.0
1961-10-08,5.0
1961-10-09,9.0
1961-10-10,17.0
1961-10-11,16.0
1961-10-12,6.0
1961-10-13,9.0
1961-10-14,17.0
1961-10-15,16.0
1961-10-16,14.0
1961-10-17,27.0
1961-10-18,14.0
1961-10-19,16.0
1961-10-20,14.0
1961-10-21,14.0
1961-10-22,35.0
1961-10-23,7.0
1961-10-24,16.0
1961-10-25,6.0
1961-10-26,4.0
1961-10-27,4.0
1961-10-28,4.0
1961-10-29,10.0
1961-10-30,30.0
1961-10-31,12.0
1961-11-01,7.0
1961-11-02,4.0
1961-11-03,1.0
1961-11-04,2.0
1961-11-05,1.0
1961-11-06,89.0
1961-11-07,106.0
1961-11-08,115.0
1961-11-09,115.0
1961-11-10,40.0
1961-11-11,10.0
1961-11-12,20.0
1961-11-13,34.0
1961-11-14,72.0
1961-11-15,102.0
1961-11-16,60.0
1961-11-17,69.0
1961-11-18,50.0
1961-11-19,34.0
1961-11-20,40.0
1961-11-21,23.0
1961-11-22,50.0
1961-11-23,69.0
1961-11-24,19.0
1961-11-25,4.0
1961-11-26,4.0
1961-11-27,5.0
1961-11-28,5.0
1961-11-29,5.0
1961-11-30,16.0
1961-12-01,19.0
1961-12-02,20.0
1961-12-03,17.0
1961-12-04,34.0
1961-12-05,22.0
1961-12-06,19.0
1961-12-07,6.0
1961-12-08,3.0
1961-12-09,2.0
1961-12-10,5.0
1961-12-11,6.0
1961-12-12,4.0
1961-12-13,1.0
1961-12-14,1.0
1961-12-15,1.0
1961-12-16,10.0
1961-12-17,12.0
1961-12-18,6.0
1961-12-19,1.0
1961-12-20,1.0
1961-12-21,1.0
1961-12-22,1.0
1961-12-23,1.0
1961-12-24,1.0
1961-12-25,2.0
1961-12-26,2.0
1961-12-27,1.0
1961-12-28,1.0
1961-12-29,1.0
1961-12-30,1.0
1961-12-31,1.0
1962-01-01,1.0
1962-01-02,1.0
1962-01-03,2.0
1962-01-04,2.0
1962-01-05,1.0
1962-01-06,1.0
1962-01-07,1.0
1962-01-08,1.0
1962-01-09,1.0
1962-01-10,1.0
1962-01-11,1.0
1962-01-12,1.0
1962-01-13,1.0
1962-01-14,1.0
1962-01-15,1.0
1962-01-16,1.0
1962-01-17,1.0
1962-01-18,1.0
1962-01-19,1.0
1962-01-20,1.0
1962-01-21,6.0
1962-01-22,15.0
1962-01-23,6.0
1962-01-24,5.0
1962-01-25,4.0
1962-01-26,1.0
1962-01-27,1.0
1962-01-28,0.0
1962-01-29,0.0
1962-01-30,0.0
1962-01-31,0.0
1962-02-01,0.0
1962-02-02,0.0
1962-02-03,0.0
1962-02-04,0.0
1962-02-05,0.0
1962-02-06,0.0
1962-02-07,0.0
1962-02-08,0.0
1962-02-09,0.0
1962-02-10,0.0
1962-02-11,0.0
1962-02-12,103.0
1962-02-13,2.0
1962-02-14,1.0
1962-02-15,205.0
1962-02-16,228.0
1962-02-17,130.0
1962-02-18,74.0
1962-02-19,46.0
1962-02-20,10.0
1962-02-21,3.0
1962-02-22,3.0
1962-02-23,2.0
1962-02-24,2.0
1962-02-25,2.0
1962-02-26,1.0
1962-02-27,1.0
1962-02-28,50.0
1962-03-01,20.0
1962-03-02,70.0
1962-03-03,9.0
1962-03-04,15.0
1962-03-05,50.0
1962-03-06,30.0
1962-03-07,60.0
1962-03-08,50.0
1962-03-09,12.0
1962-03-10,10.0
1962-03-11,11.0
1962-03-12,5.0
1962-03-13,5.0
1962-03-14,3.0
1962-03-15,5.0
1962-03-16,8.0
1962-03-17,10.0
1962-03-18,10.0
1962-03-19,16.0
1962-03-20,40.0
1962-03-21,16.0
1962-03-22,62.0
1962-03-23,35.0
1962-03-24,25.0
1962-03-25,20.0
1962-03-26,21.0
1962-03-27,19.0
1962-03-28,21.0
1962-03-29,25.0
1962-03-30,34.0
1962-03-31,46.0
1962-04-01,23.0
1962-04-02,15.0
1962-04-03,18.0
1962-04-04,20.0
1962-04-05,62.0
1962-04-06,728.0
1962-04-07,884.0
1962-04-08,1350.0
1962-04-09,1530.0
1962-04-10,1630.0
1962-04-11,1490.0
1962-04-12,1270.0
1962-04-13,884.0
1962-04-14,740.0
1962-04-15,974.0
1962-04-16,1600.0
1962-04-17,1930.0
1962-04-18,2420.0
1962-04-19,3140.0
1962-04-20,4020.0
1962-04-21,4200.0
1962-04-22,4400.0
1962-04-23,5040.0
1962-04-24,5400.0
1962-04-25,4520.0
1962-04-26,4400.0
1962-04-27,3710.0
1962-04-28,3500.0
1962-04-29,3410.0
1962-04-30,3200.0
1962-05-01,2900.0
1962-05-02,2900.0
1962-05-03,2750.0
1962-05-04,2600.0
1962-05-05,2250.0
1962-05-06,2600.0
1962-05-07,2300.0
1962-05-08,2610.0
1962-05-09,2980.0
1962-05-10,3080.0
1962-05-11,3180.0
1962-05-12,3140.0
1962-05-13,3530.0
1962-05-14,4020.0
1962-05-15,3600.0
1962-05-16,3180.0
1962-05-17,3340.0
1962-05-18,3680.0
1962-05-19,3400.0
1962-05-20,3000.0
1962-05-21,2800.0
1962-05-22,1800.0
1962-05-23,900.0
1962-05-24,770.0
1962-05-25,716.0
1962-05-26,664.0
1962-05-27,725.0
1962-05-28,820.0
1962-05-29,402.0
1962-05-30,300.0
1962-05-31,250.0
1962-06-01,216.0
1962-06-02,166.0
1962-06-03,79.0
1962-06-04,79.0
1962-06-05,73.0
1962-06-06,82.0
1962-06-07,38.0
1962-06-08,44.0
1962-06-09,68.0
1962-06-10,42.0
1962-06-11,38.0
1962-06-12,28.0
1962-06-13,26.0
1962-06-14,26.0
1962-06-15,28.0
1962-06-16,28.0
1962-06-17,47.0
1962-06-18,42.0
1962-06-19,31.0
1962-06-20,31.0
1962-06-21,32.0
1962-06-22,25.0
1962-06-23,29.0
1962-06-24,36.0
1962-06-25,32.0
1962-06-26,26.0
1962-06-27,26.0
1962-06-28,26.0
1962-06-29,28.0
1962-06-30,28.0
1962-07-01,28.0
1962-07-02,28.0
1962-07-03,29.0
1962-07-04,29.0
1962-07-05,30.0
1962-07-06,43.0
1962-07-07,101.0
1962-07-08,9.0
1962-07-09,14.0
1962-07-10,15.0
1962-07-11,13.0
1962-07-12,28.0
1962-07-13,15.0
1962-07-14,5.0
1962-07-15,2.0
1962-07-16,12.0
1962-07-17,5.0
1962-07-18,2.0
1962-07-19,1.0
1962-07-20,1.0
1962-07-21,10.0
1962-07-22,6.0
1962-07-23,5.0
1962-07-24,50.0
1962-07-25,14.0
1962-07-26,40.0
1962-07-27,23.0
1962-07-28,37.0
1962-07-29,48.0
1962-07-30,10.0
1962-07-31,19.0
1962-08-01,9.0
1962-08-02,5.0
1962-08-03,1.0
1962-08-04,1.0
1962-08-05,1.0
1962-08-06,0.0
1962-08-07,0.0
1962-08-08,0.0
1962-08-09,0.0
1962-08-10,0.0
1962-08-11,0.0
1962-08-12,0.0
1962-08-13,0.0
1962-08-14,0.0
1962-08-15,0.0
1962-08-16,0.0
1962-08-17,0.0
1962-08-18,1.0
1962-08-19,1.0
1962-08-20,1.0
1962-08-21,87.0
1962-08-22,40.0
1962-08-23,1.0
1962-08-24,1.0
1962-08-25,0.0
1962-08-26,0.0
1962-08-27,0.0
1962-08-28,0.0
1962-08-29,0.0
1962-08-30,0.0
1962-08-31,0.0
1962-09-01,73.0
1962-09-02,40.0
1962-09-03,5.0
1962-09-04,4.0
1962-09-05,3.0
1962-09-06,1.0
1962-09-07,1.0
1962-09-08,4.0
1962-09-09,1.0
1962-09-10,1.0
1962-09-11,0.0
1962-09-12,0.0
1962-09-13,1.0
1962-09-14,1.0
1962-09-15,1.0
1962-09-16,0.0
1962-09-17,0.0
1962-09-18,0.0
1962-09-19,0.0
1962-09-20,0.0
1962-09-21,0.0
1962-09-22,0.0
1962-09-23,1.0
1962-09-24,160.0
1962-09-25,240.0
1962-09-26,10.0
1962-09-27,104.0
1962-09-28,30.0
1962-09-29,10.0
1962-09-30,5.0
1962-10-01,2.0
1962-10-02,2.0
1962-10-03,2.0
1962-10-04,2.0
1962-10-05,2.0
1962-10-06,4.0